Regional Weather Roundup
Issued by NWS Green Bay, WI

Home | Current Version | Previous Version | Text Only | Print | Product List | Glossary On
Versions: 1 2 3 4 5 6 7 8 9 10 11 12 13 14 15 16 17 18 19 20 21 22 23 24 25 26 27 28 29 30 31 32 33 34 35 36 37 38 39 40 41 42 43 44 45 46 47 48 49 50
000
ASUS43 KGRB 230311
RWRGRB

NORTH-CENTRAL AND NORTHEAST WISCONSIN REGIONAL WEATHER ROUNDUP
NATIONAL WEATHER SERVICE GREEN BAY WI
1000 PM CDT FRI SEP 22 2017

WIZ005-009-010>012-018-019-230400-
NORTH CENTRAL WISCONSIN

CITY           SKY/WX    TMP DP  RH WIND       PRES   REMARKS
IRONWOOD       CLEAR     76  68  76 S18G30    29.86F
MANITOWISH WTR CLEAR     72  72 100 S7        29.94S
ARBOR VITAE    CLEAR     72  68  87 S7        29.96S
EAGLE RIVER    CLEAR     68  66  94 S6        29.97S
LAND O LAKES   CLEAR     70  66  85 S9        29.98F
RHINELANDER    CLEAR     70  67  90 S5        29.99S
PHILLIPS       CLOUDY    75  69  80 S9        29.93F
ANTIGO         CLEAR     67  65  96 S7        30.02R
TOMAHAWK       CLEAR     68  65  90 CALM      29.97F
MERRILL        CLEAR     69  69  98 SE5       29.98S
$$

WIZ013-073-230400-
NORTHEAST WISCONSIN

CITY           SKY/WX    TMP DP  RH WIND       PRES   REMARKS
IRON MOUNTAIN  CLEAR     65  62  90 SE3       29.97S
MARINETTE      CLEAR     69  66  90 CALM      29.99S
OCONTO         CLEAR     71  67  86 S5        29.98S
$$

WIZ017-030-035>037-045-230400-
CENTRAL WISCONSIN

CITY           SKY/WX    TMP DP  RH WIND       PRES   REMARKS
MEDFORD        CLEAR     71  66  82 S8        29.97S
WAUSAU         CLEAR     76  66  71 S10       29.97R
MOSINEE        CLEAR     72  66  83 S7        30.00R
MARSHFIELD     CLEAR     74  64  71 S9        29.97F
WISC RAPIDS    CLEAR     78  66  66 S8        29.99S
STEVENS POINT  CLEAR     76  64  67 S6        30.00R
WAUPACA        CLEAR     75  67  74 S5        30.00R
SHAWANO        CLEAR     68  65  91 CALM      29.98S
CLINTONVILLE   CLEAR     72  64  78 S5        29.99R
WAUTOMA        CLEAR     73  68  84 S6        30.00S
$$

WIZ038-039-048-051-230400-
FOX VALLEY

CITY           SKY/WX    TMP DP  RH WIND       PRES   REMARKS
NWS GREEN BAY  CLEAR     73  69  87 S8        29.99R
APPLETON       PTCLDY    73  66  78 S7        29.99S
OSHKOSH        CLEAR     73  69  87 S5        30.00S
FOND DU LAC    CLEAR     71  66  84 SE6       30.01S
$$

WIZ022-050-052-230400-
EAST CENTRAL WISCONSIN

CITY           SKY/WX    TMP DP  RH WIND       PRES   REMARKS
EPHRAIM        FAIR      71  66  84 S8G16     29.98S
WASHINGTON ISL FAIR      71  65  83 S13G20    29.98S
STURGEON BAY   CLEAR     71  67  87 S13       30.00S
MANITOWOC      CLEAR     72  67  84 S10       30.01F
SHEBOYGAN      CLEAR     66  66 100 CALM      30.02S FOG
$$

LMZ563-521-522-541>543-230400-
LAKESHORE

STATION/POSITION TIME  TEMP    WIND        PRES    VSBY  WAVE
                       AIR SEA DIR/SP/G                  HT/PER
                 (UTC) (F)     (DEG/KT/KT) (MB)    (MI)  (FT/S)
SHEBOYGAN LKSHOR 0300   71     170/  5/  6 1016.1S
KEWAUNEE LKSHORE 0248   66     170/  5/  7 1015.3R
NORTHPORT PIER   0240   72     150/  8/ 12 1015.2S
N MID LAKE BUOY  0250   69 66  180/ 10/ 10 1016.1R         2/ 4
S GREEN BAY BUOY 0300   70 67  220/  8/  8 1015.2
SISTER BAY LKSHO 0304   73     160/ 15/ 20   N/A
MENOMINEE LKSHOR 0248   72     170/  9/ 12 1014.8S
$$



USA.gov is the U.S. government's official web portal to all federal, state and local government web resources and services.